Location: Kawakawa
(35.3830°S, 174.0670°E)
Time: 20:41:31
(UTC+12:00)

ISS - Visible Passes

Search period start: 23 September 2023 00:00
Search period end: 03 October 2023 01:00
Orbit: 414 x 422 km, 51.6° (Epoch: 23 September)

Date Brightness Start Highest point End Pass type
(mag) Time Alt. Az. Time Alt. Az. Time Alt. Az.
23 Sep -0.4 03:38:25 13° ESE 03:38:25 13° ESE 03:38:55 10° ESE visible
23 Sep -2.3 05:11:22 20° WSW 05:12:38 26° SSW 05:15:36 10° SSE visible
24 Sep -2.4 05:25:28 34° S 05:25:28 34° S 05:27:53 10° SE visible
25 Sep -0.5 04:39:28 14° SE 04:39:28 14° SE 04:40:00 10° SE visible
25 Sep -1.3 06:12:24 10° SW 06:13:50 13° SSW 06:15:26 10° S visible
26 Sep -1.5 05:26:18 17° SSW 05:26:18 17° SSW 05:28:01 10° SSE visible
27 Sep -0.5 04:40:07 11° SSE 04:40:07 11° SSE 04:40:21 10° SSE visible
